Location: Sternwarte Stuttgart
(48.7670°N, 9.1830°E)
Time: 15:33:56
(UTC+01:00)

Cosmos 2369 Rocket - Pass Details

Date: 24 January 2019
Orbit: 829 x 852 km, 71.0° (Epoch: 15 February)

Event Time Altitude Azimuth Distance (km) Brightness Sun altitude
Exits shadow 06:26:39 21° 305° (NW) 1,805 3.4 -15.8°
Maximum altitude 06:27:32 22° 319° (NW) 1,771 3.4 -15.6°
Drops below altitude 10° 06:31:55 10° 9° (N) 2,477 4.6 -14.9°
Sets 06:34:56 0° 25° (NNE) 3,411 5.5 -14.4°
